Location: Dreilärchen
(47.9312°N, 8.6113°E)
Time: 01:52:40
(UTC+00:00)

Nadezhda 1 Rocket - Pass Details

Date: 26 May 2022
Orbit: 940 x 1006 km, 83.0° (Epoch: 26 June)

Event Time Altitude Azimuth Distance (km) Brightness Sun altitude
Exits shadow 02:15:05 12° 204° (SSW) 2,588 5.6 -10.9°
Maximum altitude 02:20:51 60° 283° (WNW) 1,132 4.2 -10.3°
Drops below altitude 10° 02:27:05 10° 3° (N) 2,744 7.2 -9.6°
Sets 02:29:39 0° 7° (N) 3,686 8.0 -9.3°
